Location: Auttagershofen
(48.1940°N, 10.0237°E)
Time: 22:07:50
(UTC+00:00)

Lacrosse 5 rocket - Pass Details

Date: 17 April 2026
Orbit: 390 x 471 km, 57.0° (Epoch: 19 May)

Event Time Altitude Azimuth Distance (km) Brightness Sun altitude
Rises 18:56:35 0° 261° (W) 2,301 5.5 -7.5°
Reaches altitude 10° 18:58:49 10° 273° (W) 1,437 4.7 -7.9°
Maximum altitude 19:01:40 30° 336° (NNW) 741 2.6 -8.3°
Drops below altitude 10° 19:04:32 10° 41° (NE) 1,431 3.3 -8.7°
Sets 19:06:45 0° 52° (NE) 2,290 4.2 -9.1°
